Mobile Downtown, AL

11:20 PM CDT on March 25, 2017 (GMT -0500)
Mobile Downtown

Weather History for KBFM - June, 2013

Change the Weather History Date:

Saturday, June 15, 2013

  Actual Average Record
Temperature  
Mean Temperature 80 °F -  
Max Temperature 90 °F 85 °F 96 °F (2011)
Min Temperature 71 °F 70 °F 68 °F (2007)
Cooling Degree Days 15    
Growing Degree Days 30 (Base 50)    
Moisture  
Dew Point 71 °F    
Average Humidity 71    
Maximum Humidity 88    
Minimum Humidity 55    
Precipitation  
Precipitation 0.00 in - - ()
Sea Level Pressure  
Sea Level Pressure 30.00 in    
Wind  
Wind Speed 5 mph (East)    
Max Wind Speed 9 mph    
Max Gust Speed -    
Visibility 10 miles    
Events      
Averages and records for this station are not official NWS values.
T = Trace of Precipitation, MM = Missing Value Source: NWS Daily Summary

Daily Weather History Graph

Daily Weather History Graph

Search for Another Location

Airport or City:

Trip Planner

Search our weather history database for the weather conditions in past years. The results will help you decide how hot, cold, wet, or windy it might be!

Date:

Astronomy

Jun. 15, 2013 Rise Set
Actual Time 5:49 AM CDT 7:56 PM CDT
Civil Twilight 5:21 AM CDT 8:24 PM CDT
Nautical Twilight 4:47 AM CDT 8:57 PM CDT
Astronomical Twilight 4:11 AM CDT 9:34 PM CDT
Moon 11:59 AM CDT (6/15) No Moon Set
Length of Visible Light 15h 02m
Length of Day
14h 07m
Waxing Crescent, 40% of the Moon is Illuminated
Jun 15
Waxing Crescent
Jun 16
First Quarter
Jun 23
Full
Jun 29
Last Quarter
Jul 8
New

Hourly Weather History & Observations

Time (CDT) Temp. Heat Index Dew Point Humidity Pressure Visibility Wind Dir Wind Speed Gust Speed Precip Events Conditions
12:53 AM 77.0 °F - 69.1 °F 76% 29.97 in 10.0 mi North 4.6 mph - N/A   Partly Cloudy
1:53 AM 75.9 °F - 66.9 °F 74% 29.96 in 10.0 mi North 5.8 mph - N/A   Partly Cloudy
2:53 AM 75.0 °F - 66.0 °F 73% 29.96 in 10.0 mi NNW 4.6 mph - N/A   Clear
3:53 AM 73.9 °F - 66.0 °F 76% 29.96 in 10.0 mi North 4.6 mph - N/A   Clear
4:53 AM 73.9 °F - 66.0 °F 76% 29.97 in 10.0 mi North 4.6 mph - N/A   Clear
5:53 AM 71.1 °F - 66.0 °F 84% 29.99 in 10.0 mi NNE 4.6 mph - N/A   Clear
6:53 AM 73.9 °F - 66.9 °F 79% 30.00 in 10.0 mi Calm Calm - N/A   Scattered Clouds
7:53 AM 78.1 °F - 66.9 °F 68% 30.01 in 10.0 mi North 4.6 mph - N/A   Scattered Clouds
8:53 AM 79.0 °F - 66.9 °F 66% 30.04 in 10.0 mi NE 3.5 mph - N/A   Scattered Clouds
9:53 AM 82.0 °F 84.9 °F 68.0 °F 62% 30.04 in 10.0 mi NE 4.6 mph - N/A   Scattered Clouds
10:53 AM 84.9 °F 88.8 °F 69.1 °F 59% 30.04 in 10.0 mi NNE 3.5 mph - N/A   Partly Cloudy
11:53 AM 87.1 °F 92.0 °F 70.0 °F 57% 30.03 in 10.0 mi ENE 3.5 mph - N/A   Clear
12:53 PM 89.1 °F 95.0 °F 71.1 °F 55% 30.03 in 10.0 mi SSE 8.1 mph - N/A   Clear
1:53 PM 89.1 °F 96.0 °F 72.0 °F 57% 30.01 in 10.0 mi SSE 9.2 mph - N/A   Clear
2:53 PM 88.0 °F 96.5 °F 73.9 °F 63% 30.01 in 10.0 mi SSE 6.9 mph - 0.00 in   Partly Cloudy
3:53 PM 88.0 °F 95.6 °F 73.0 °F 61% 30.00 in 10.0 mi SSE 8.1 mph - N/A   Partly Cloudy
4:53 PM 87.1 °F 97.3 °F 75.9 °F 69% 29.99 in 10.0 mi SSE 6.9 mph - N/A   Partly Cloudy
5:53 PM 87.1 °F 95.4 °F 73.9 °F 65% 29.98 in 10.0 mi South 6.9 mph - N/A   Mostly Cloudy
6:53 PM 84.9 °F 94.1 °F 75.9 °F 74% 29.99 in 10.0 mi South 6.9 mph - N/A   Scattered Clouds
7:53 PM 82.9 °F 90.8 °F 75.9 °F 79% 29.99 in 10.0 mi SSE 6.9 mph - N/A   Clear
8:53 PM 82.9 °F 91.8 °F 77.0 °F 82% 30.01 in 10.0 mi SSE 6.9 mph - N/A   Overcast
9:53 PM 82.0 °F 89.4 °F 75.9 °F 82% 30.03 in 10.0 mi SE 6.9 mph - N/A   Mostly Cloudy
10:53 PM 81.0 °F 87.9 °F 77.0 °F 88% 30.04 in 10.0 mi SE 8.1 mph - N/A   Scattered Clouds
11:53 PM 81.0 °F 87.9 °F 77.0 °F 88% 30.04 in 10.0 mi SE 9.2 mph - N/A   Scattered Clouds